2016-01-09 00:03:01 r, 17.65m,0000000007Hz,0000059657c,0000000.129s,-001.3C,00002195
2016-01-09 00:13:00 r, 17.66m,0000000008Hz,0000060256c,0000000.131s,-001.3C,00002195
2016-01-09 00:23:00 r, 17.66m,0000000007Hz,0000060532c,0000000.131s,-001.3C,00002195
2016-01-09 00:33:01 r, 17.66m,0000000008Hz,0000060540c,0000000.131s,-001.7C,00002195
2016-01-09 00:43:00 r, 17.66m,0000000008Hz,0000060512c,0000000.131s,-001.7C,00002195
2016-01-09 00:53:01 r, 17.66m,0000000008Hz,0000060489c,0000000.131s,-001.7C,00002195
2016-01-09 01:03:01 r, 17.67m,0000000008Hz,0000061106c,0000000.133s,-002.0C,00002195
2016-01-09 01:13:03 r, 17.66m,0000000007Hz,0000060615c,0000000.132s,-002.0C,00002195
2016-01-09 01:23:00 r, 17.66m,0000000007Hz,0000060603c,0000000.132s,-002.0C,00002195
2016-01-09 01:33:00 r, 17.68m,0000000007Hz,0000061275c,0000000.133s,-002.0C,00002195
2016-01-09 01:43:01 r, 17.66m,0000000008Hz,0000060665c,0000000.132s,-002.3C,00002195
2016-01-09 01:53:00 r, 17.67m,0000000007Hz,0000061182c,0000000.133s,-002.3C,00002195
2016-01-09 02:03:00 r, 17.68m,0000000007Hz,0000061305c,0000000.133s,-002.3C,00002195
2016-01-09 02:13:02 r, 17.67m,0000000008Hz,0000060825c,0000000.132s,-002.6C,00002195
2016-01-09 02:23:00 r, 17.65m,0000000008Hz,0000059577c,0000000.129s,-002.6C,00002195
2016-01-09 02:33:00 r, 17.54m,0000000008Hz,0000053798c,0000000.117s,-002.6C,00002195
2016-01-09 02:43:02 r, 17.51m,0000000009Hz,0000052884c,0000000.115s,-002.6C,00002195
2016-01-09 02:53:00 r, 17.68m,0000000007Hz,0000061448c,0000000.133s,-002.6C,00002195
2016-01-09 03:03:00 r, 17.68m,0000000007Hz,0000061592c,0000000.134s,-002.6C,00002195
2016-01-09 03:13:01 r, 17.68m,0000000008Hz,0000061478c,0000000.133s,-003.0C,00002195
2016-01-09 03:23:00 r, 17.69m,0000000007Hz,0000062263c,0000000.135s,-003.0C,00002195
2016-01-09 03:33:00 r, 17.69m,0000000007Hz,0000061980c,0000000.135s,-003.0C,00002195
2016-01-09 03:43:00 r, 17.68m,0000000008Hz,0000061645c,0000000.134s,-003.0C,00002195
2016-01-09 03:53:00 r, 17.69m,0000000007Hz,0000062350c,0000000.135s,-003.0C,00002195
2016-01-09 04:03:00 r, 17.69m,0000000008Hz,0000062368c,0000000.135s,-003.0C,00002195
2016-01-09 04:13:01 r, 17.70m,0000000008Hz,0000062509c,0000000.136s,-003.0C,00002195
2016-01-09 04:23:00 r, 17.69m,0000000007Hz,0000062199c,0000000.135s,-003.0C,00002195
2016-01-09 04:33:00 r, 17.68m,0000000007Hz,0000061488c,0000000.133s,-003.0C,00002195
2016-01-09 04:43:01 r, 17.68m,0000000008Hz,0000061471c,0000000.133s,-003.0C,00002195
2016-01-09 04:53:00 r, 17.68m,0000000007Hz,0000061539c,0000000.134s,-003.0C,00002195
2016-01-09 05:03:00 r, 17.68m,0000000008Hz,0000061523c,0000000.134s,-003.3C,00002195
2016-01-09 05:13:03 r, 17.68m,0000000007Hz,0000061441c,0000000.133s,-003.3C,00002195
2016-01-09 05:23:01 r, 17.68m,0000000008Hz,0000061351c,0000000.133s,-003.3C,00002195
2016-01-09 05:33:00 r, 17.66m,0000000008Hz,0000060391c,0000000.131s,-003.3C,00002195
2016-01-09 05:43:03 r, 17.66m,0000000008Hz,0000060369c,0000000.131s,-003.3C,00002195
2016-01-09 05:53:01 r, 17.66m,0000000008Hz,0000060487c,0000000.131s,-003.6C,00002195
2016-01-09 06:03:00 r, 17.68m,0000000008Hz,0000061332c,0000000.133s,-003.6C,00002195
2016-01-09 06:13:01 r, 17.66m,0000000008Hz,0000060384c,0000000.131s,-003.6C,00002195
2016-01-09 06:23:02 r, 17.66m,0000000008Hz,0000060176c,0000000.131s,-003.6C,00002195
2016-01-09 06:33:00 r, 17.65m,0000000008Hz,0000059569c,0000000.129s,-003.9C,00002195
2016-01-09 06:43:01 r, 17.64m,0000000008Hz,0000059272c,0000000.129s,-003.6C,00002195
2016-01-09 06:53:00 r, 17.62m,0000000008Hz,0000058166c,0000000.126s,-003.6C,00002195
2016-01-09 07:03:00 r, 17.57m,0000000008Hz,0000055319c,0000000.120s,-003.6C,00002195
2016-01-09 07:13:01 r, 17.35m,0000000010Hz,0000045092c,0000000.098s,-003.6C,00002195
2016-01-09 07:23:03 r, 16.74m,0000000018Hz,0000025805c,0000000.056s,-003.6C,00002195
2016-01-09 07:33:00 r, 15.59m,0000000051Hz,0000008981c,0000000.019s,-003.9C,00002195
2016-01-09 07:43:00 r, 13.86m,0000000255Hz,0000000000c,0000000.000s,-003.9C,00002195
2016-01-09 07:53:01 r, 11.90m,0000001539Hz,0000000000c,0000000.000s,-003.9C,00002195
2016-01-09 08:03:00 r, 10.08m,0000008312Hz,0000000000c,0000000.000s,-003.9C,00002195
2016-01-09 08:13:00 r, 08.67m,0000030256Hz,0000000000c,0000000.000s,-003.9C,00002195
2016-01-09 08:23:02 r, 07.66m,0000077276Hz,0000000000c,0000000.000s,-003.9C,00002195
2016-01-09 08:33:00 r, 06.92m,0000151796Hz,0000000000c,0000000.000s,-003.9C,00002195
2016-01-09 08:43:01 r, 06.29m,0000270637Hz,0000000000c,0000000.000s,-003.9C,00002195
2016-01-09 08:53:01 r, 06.00m,0000353806Hz,0000000000c,0000000.000s,-003.6C,00002195
2016-01-09 09:03:01 r, 00.00m,0000449924Hz,0000000000c,0000000.000s,-003.6C,00002195
2016-01-09 09:13:02 r, 00.00m,0000541421Hz,0000000000c,0000000.000s,-003.6C,00002195
2016-01-09 09:23:01 r, 00.00m,0000559979Hz,0000000000c,0000000.000s,-003.3C,00002195
2016-01-09 09:33:00 r, 00.00m,0000560141Hz,0000000000c,0000000.000s,-003.0C,00002195
2016-01-09 09:43:03 r, 00.00m,0000560274Hz,0000000000c,0000000.000s,-002.0C,00002195
2016-01-09 09:53:01 r, 00.00m,0000560425Hz,0000000000c,0000000.000s,-001.3C,00002195
2016-01-09 10:03:00 r, 00.00m,0000560381Hz,0000000000c,0000000.000s,-000.7C,00002195
2016-01-09 10:13:03 r, 00.00m,0000560542Hz,0000000000c,0000000.000s, 000.3C,00002195
2016-01-09 10:23:01 r, 00.00m,0000560632Hz,0000000000c,0000000.000s, 000.9C,00002195
2016-01-09 10:33:00 r, 00.00m,0000560716Hz,0000000000c,0000000.000s, 000.9C,00002195
2016-01-09 10:43:01 r, 00.00m,0000560566Hz,0000000000c,0000000.000s, 000.9C,00002195
2016-01-09 10:53:01 r, 00.00m,0000560677Hz,0000000000c,0000000.000s, 000.9C,00002195
2016-01-09 11:03:00 r, 00.00m,0000560623Hz,0000000000c,0000000.000s, 000.9C,00002195
2016-01-09 11:13:00 r, 00.00m,0000560677Hz,0000000000c,0000000.000s, 001.2C,00002195
2016-01-09 11:23:00 r, 00.00m,0000560767Hz,0000000000c,0000000.000s, 001.2C,00002195
2016-01-09 11:33:00 r, 00.00m,0000560837Hz,0000000000c,0000000.000s, 001.6C,00002195
2016-01-09 11:43:03 r, 00.00m,0000560826Hz,0000000000c,0000000.000s, 001.6C,00002195
2016-01-09 11:53:00 r, 00.00m,0000560879Hz,0000000000c,0000000.000s, 002.2C,00002195
2016-01-09 12:03:00 r, 00.00m,0000560870Hz,0000000000c,0000000.000s, 002.2C,00002195
2016-01-09 12:13:00 r, 00.00m,0000560942Hz,0000000000c,0000000.000s, 002.5C,00002195
2016-01-09 12:23:01 r, 00.00m,0000560946Hz,0000000000c,0000000.000s, 002.5C,00002195
2016-01-09 12:33:00 r, 00.00m,0000560956Hz,0000000000c,0000000.000s, 002.5C,00002195
2016-01-09 12:43:00 r, 00.00m,0000561045Hz,0000000000c,0000000.000s, 002.9C,00002195
2016-01-09 12:53:02 r, 00.00m,0000560933Hz,0000000000c,0000000.000s, 002.9C,00002195
2016-01-09 13:03:00 r, 00.00m,0000560940Hz,0000000000c,0000000.000s, 002.9C,00002195
2016-01-09 13:13:00 r, 00.00m,0000560959Hz,0000000000c,0000000.000s, 002.9C,00002195
2016-01-09 13:23:03 r, 00.00m,0000560909Hz,0000000000c,0000000.000s, 002.9C,00002195
2016-01-09 13:33:01 r, 00.00m,0000560891Hz,0000000000c,0000000.000s, 002.9C,00002195
2016-01-09 13:43:01 r, 00.00m,0000560912Hz,0000000000c,0000000.000s, 002.5C,00002195
2016-01-09 13:53:00 r, 00.00m,0000560895Hz,0000000000c,0000000.000s, 002.2C,00002195
2016-01-09 14:03:02 r, 00.00m,0000560845Hz,0000000000c,0000000.000s, 002.2C,00002195
2016-01-09 14:13:00 r, 00.00m,0000560640Hz,0000000000c,0000000.000s, 000.9C,00002195
2016-01-09 14:23:01 r, 00.00m,0000560537Hz,0000000000c,0000000.000s, 000.1C,00002195
2016-01-09 14:33:00 r, 00.00m,0000560415Hz,0000000000c,0000000.000s,-000.7C,00002195
2016-01-09 14:43:03 r, 00.00m,0000560325Hz,0000000000c,0000000.000s,-001.0C,00002195
2016-01-09 14:53:01 r, 00.00m,0000560282Hz,0000000000c,0000000.000s,-001.3C,00002195
2016-01-09 15:03:00 r, 00.00m,0000560158Hz,0000000000c,0000000.000s,-001.7C,00002195
2016-01-09 15:13:01 r, 00.00m,0000560158Hz,0000000000c,0000000.000s,-001.7C,00002195
2016-01-09 15:23:00 r, 00.00m,0000560226Hz,0000000000c,0000000.000s,-001.7C,00002195
2016-01-09 15:33:00 r, 00.00m,0000560265Hz,0000000000c,0000000.000s,-002.0C,00002195
2016-01-09 15:43:01 r, 00.00m,0000560184Hz,0000000000c,0000000.000s,-002.0C,00002195
2016-01-09 15:53:03 r, 00.00m,0000560249Hz,0000000000c,0000000.000s,-002.3C,00002195
2016-01-09 16:03:00 r, 00.00m,0000495397Hz,0000000000c,0000000.000s,-002.3C,00002195
2016-01-09 16:13:01 r, 00.00m,0000400553Hz,0000000000c,0000000.000s,-002.3C,00002195
2016-01-09 16:23:03 r, 06.18m,0000300736Hz,0000000000c,0000000.000s,-002.3C,00002195
2016-01-09 16:33:00 r, 06.61m,0000201983Hz,0000000000c,0000000.000s,-002.6C,00002195
2016-01-09 16:43:00 r, 07.22m,0000115148Hz,0000000000c,0000000.000s,-002.6C,00002195
2016-01-09 16:53:00 r, 08.09m,0000051863Hz,0000000000c,0000000.000s,-003.0C,00002195
2016-01-09 17:03:00 r, 09.30m,0000016981Hz,0000000000c,0000000.000s,-003.0C,00002195
2016-01-09 17:13:01 r, 10.89m,0000003920Hz,0000000000c,0000000.000s,-003.3C,00002195
2016-01-09 17:23:02 r, 12.79m,0000000687Hz,0000000000c,0000000.000s,-003.0C,00002195
2016-01-09 17:33:00 r, 14.72m,0000000115Hz,0000004000c,0000000.009s,-003.0C,00002195
2016-01-09 17:43:00 r, 16.15m,0000000030Hz,0000015103c,0000000.033s,-003.0C,00002195
2016-01-09 17:53:01 r, 17.01m,0000000014Hz,0000033032c,0000000.072s,-003.0C,00002195
2016-01-09 18:03:00 r, 17.39m,0000000010Hz,0000046997c,0000000.102s,-003.0C,00002195
2016-01-09 18:13:00 r, 17.47m,0000000010Hz,0000050563c,0000000.110s,-003.3C,00002195
2016-01-09 18:23:01 r, 17.32m,0000000010Hz,0000044216c,0000000.096s,-003.0C,00002195
2016-01-09 18:33:00 r, 16.87m,0000000016Hz,0000029274c,0000000.064s,-003.0C,00002195
2016-01-09 18:43:00 r, 17.20m,0000000012Hz,0000039552c,0000000.086s,-003.0C,00002195
2016-01-09 18:53:01 r, 17.24m,0000000011Hz,0000040970c,0000000.089s,-003.0C,00002195
2016-01-09 19:03:00 r, 17.13m,0000000013Hz,0000037274c,0000000.081s,-003.0C,00002195
2016-01-09 19:13:03 r, 17.07m,0000000013Hz,0000035087c,0000000.076s,-003.0C,00002195
2016-01-09 19:23:01 r, 17.19m,0000000012Hz,0000039093c,0000000.085s,-003.0C,00002195
2016-01-09 19:33:00 r, 16.96m,0000000014Hz,0000031670c,0000000.069s,-003.0C,00002195
2016-01-09 19:43:00 r, 16.93m,0000000015Hz,0000030926c,0000000.067s,-002.6C,00002195
2016-01-09 19:53:01 r, 17.41m,0000000010Hz,0000047941c,0000000.104s,-002.6C,00002195
2016-01-09 20:03:00 r, 17.41m,0000000010Hz,0000047848c,0000000.104s,-002.6C,00002195
2016-01-09 20:13:00 r, 17.29m,0000000011Hz,0000043073c,0000000.093s,-002.6C,00002195
2016-01-09 20:23:01 r, 17.17m,0000000012Hz,0000038436c,0000000.083s,-002.6C,00002195
2016-01-09 20:33:00 r, 17.00m,0000000014Hz,0000032820c,0000000.071s,-002.6C,00002195
2016-01-09 20:43:00 r, 17.03m,0000000014Hz,0000033927c,0000000.074s,-002.3C,00002195
2016-01-09 20:53:01 r, 16.79m,0000000017Hz,0000027077c,0000000.059s,-002.3C,00002195
2016-01-09 21:03:00 r, 16.61m,0000000020Hz,0000023004c,0000000.050s,-002.3C,00002195
2016-01-09 21:13:00 r, 16.69m,0000000018Hz,0000024702c,0000000.054s,-002.3C,00002195
2016-01-09 21:23:00 r, 16.66m,0000000019Hz,0000024025c,0000000.052s,-002.3C,00002195
2016-01-09 21:33:01 r, 16.61m,0000000020Hz,0000022968c,0000000.050s,-002.0C,00002195
2016-01-09 21:43:00 r, 16.34m,0000000025Hz,0000017998c,0000000.039s,-002.0C,00002195
2016-01-09 21:53:01 r, 16.41m,0000000024Hz,0000019182c,0000000.042s,-001.7C,00002195
2016-01-09 22:03:01 r, 16.32m,0000000026Hz,0000017606c,0000000.038s,-001.7C,00002195
2016-01-09 22:13:02 r, 16.17m,0000000030Hz,0000015301c,0000000.033s,-001.7C,00002195
2016-01-09 22:23:01 r, 16.32m,0000000026Hz,0000017605c,0000000.038s,-002.0C,00002195
2016-01-09 22:33:02 r, 16.72m,0000000018Hz,0000025458c,0000000.055s,-001.7C,00002195
2016-01-09 22:43:01 r, 16.91m,0000000016Hz,0000030175c,0000000.065s,-001.7C,00002195
2016-01-09 22:53:03 r, 17.16m,0000000012Hz,0000038148c,0000000.083s,-001.7C,00002195
2016-01-09 23:03:01 r, 17.37m,0000000010Hz,0000046315c,0000000.101s,-002.0C,00002195
2016-01-09 23:13:00 r, 17.48m,0000000009Hz,0000051117c,0000000.111s,-002.0C,00002195
2016-01-09 23:23:02 r, 17.57m,0000000008Hz,0000055579c,0000000.121s,-002.3C,00002195
2016-01-09 23:33:00 r, 17.62m,0000000008Hz,0000057869c,0000000.126s,-002.3C,00002195
2016-01-09 23:43:00 r, 17.69m,0000000007Hz,0000062007c,0000000.135s,-002.6C,00002195
2016-01-09 23:53:01 r, 17.69m,0000000008Hz,0000062172c,0000000.135s,-002.6C,00002195
